User: anonymous   Login
Location: Tierra del Sol
(32.6128°N, 116.3319°W)
Time: 23:07:34
(UTC-07:00)
Language:

Gurwin Techsat 1B - Orbit

View from above orbital plane
View from above orbital plane
View from above satellite
View from above satellite

Ground track
Ground track

The orbit data is extracted from the following two-line orbital elements,

1 25397U 98043D   18199.37726121 -.00000019  00000-0  10592-4 0  9999
2 25397  98.6508 139.3021 0000500 356.2867   3.8308 14.23648394 40162
Epoch (UTC): 18 July 2018 09:03:15
Eccentricity: 0.0000500
inclination: 98.6508°
perigee height: 812 km
apogee height: 813 km
right ascension of ascending node: 139.3021°
argument of perigee: 356.2867°
revolutions per day: 14.23648394
mean anomaly at epoch: 3.8308°
orbit number at epoch: 4016

The dashed part of the orbit path shows where the satellite is in the earth's shadow,  

DLR